Weather in Snopa

Russia / Nenets Autonomous Okrug     66°44′25″N   47°00′52″E
temp.,
°C
wind,
m/s
gust,
m/s
humid.,
%
clouds,
%
prec.,
mm/h
press.,
hPa
HPBL,
m
19 january, wed
wed1900:00−14wsw44100100 0.1 99931
03:00−12sw579384 0.1 99961
06:00−12sw599285 0.0 99889
09:00−12ssw71390100 0.0 996189
12:00−8ssw101889100 0.0 993469
15:00−7ssw111893100 0.9 991559
18:00−6ssw101694100 0.6 988518
21:00−5ssw101694100 1.4 987479
20 january, thu
thu2000:00−5ssw101694100 0.6 987470
03:00−5s101695100 1.1 986453
06:00−6s101694100 0.4 985436
09:00−5s101695100 1.8 985465
12:00−4ssw101695100 1.7 986477
15:00−4ssw101790100 1.8 986410
18:00−3ssw10179291 0.1 987473
21:00−2ssw10169386 0.3 989400
21 january, fri
fri2100:00−2ssw81495100 0.1 991334
03:000ssw81397100 0.2 993423
06:00−1ssw81396100 0.3 995416
09:00−2ssw81395100 0.6 997430
12:00−2ssw81396100 0.7 1000468
15:00−3ssw81394100 1.2 1003392
18:00−4ssw71293100 0.1 1005335
21:00−5ssw7119498 0.3 1009262
22 january, sat
sat2200:00−7ssw61095100 0.2 1012195
03:00−8sw5995100 0.4 1014175
06:00−8sw579683 0.3 1016130
09:00−9sw4696100 0.5 101886
12:00−9sw4695100 0.2 102092
15:00−9sw449691 0.3 102165
18:00−10sw459783 0.1 102346
21:00−11ssw469679 0.1 102458
23 january, sun
sun2300:00−13ssw459769 0.0 102554
03:00−13ssw479677 0.1 102594
06:00−15ssw599577 0.1 1025107
09:00−18ssw6119239 0.1 1026128
12:00−16ssw71389100 0.0 1026197
15:00−14ssw8158879 0.0 1025233
18:00−13ssw91690100 0.0 1025261
21:00−12ssw10188979 0.0 1023308